Location: Albuquerque Trailhead
(34.7934°N, 106.3736°W)
Time: 03:48:08
(UTC+00:00)

Meteor 1-24 Rocket - Pass Details

Date: 20 June 2021
Orbit: 791 x 927 km, 81.3° (Epoch: 29 July)

Event Time Altitude Azimuth Distance (km) Brightness Sun altitude
Exits shadow 05:32:11 44° 248° (WSW) 1,093 4.2 -27.6°
Maximum altitude 05:33:10 50° 281° (WNW) 1,017 4.2 -27.7°
Drops below altitude 10° 05:38:27 10° 357° (N) 2,419 6.9 -28.1°
Sets 05:40:58 0° 3° (N) 3,374 7.8 -28.3°
